TimeCST,TemperatureF,Dew PointF,Humidity,Sea Level PressureIn,VisibilityMPH,Wind Direction,Wind SpeedMPH,Gust SpeedMPH,PrecipitationIn,Events,Conditions,WindDirDegrees,DateUTC
12:15 AM,30.2,28.4,93,30.25,10.0,NNE,5.8,-,N/A,,Clear,20,2011-11-22 06:15:00
12:35 AM,30.2,28.4,93,30.24,10.0,NNE,5.8,-,N/A,,Clear,20,2011-11-22 06:35:00
12:55 AM,30.2,30.2,100,30.25,10.0,NNE,4.6,-,N/A,,Clear,20,2011-11-22 06:55:00
1:15 AM,30.2,30.2,100,30.24,10.0,NNE,6.9,-,N/A,,Clear,20,2011-11-22 07:15:00
1:35 AM,32.0,30.2,93,30.23,10.0,North,6.9,-,N/A,,Clear,10,2011-11-22 07:35:00
2:15 AM,32.0,30.2,93,30.22,10.0,NNE,6.9,-,N/A,,Scattered Clouds,30,2011-11-22 08:15:00
2:35 AM,32.0,32.0,100,30.22,10.0,NNE,6.9,-,N/A,,Mostly Cloudy,30,2011-11-22 08:35:00
2:55 AM,32.0,32.0,100,30.22,10.0,NNE,6.9,-,N/A,,Overcast,20,2011-11-22 08:55:00
3:15 AM,32.0,32.0,100,30.20,10.0,NNE,6.9,-,N/A,,Overcast,20,2011-11-22 09:15:00
3:35 AM,33.8,32.0,93,30.18,10.0,NNE,8.1,-,N/A,,Overcast,20,2011-11-22 09:35:00
3:55 AM,33.8,32.0,93,30.17,10.0,NNE,8.1,-,N/A,,Overcast,20,2011-11-22 09:55:00
4:15 AM,32.0,32.0,100,30.16,10.0,NNE,8.1,-,N/A,,Overcast,20,2011-11-22 10:15:00
4:35 AM,32.0,32.0,100,30.13,10.0,NNE,8.1,-,N/A,,Mostly Cloudy,20,2011-11-22 10:35:00
4:55 AM,33.8,32.0,93,30.14,10.0,NNE,6.9,-,N/A,,Scattered Clouds,20,2011-11-22 10:55:00
5:15 AM,32.0,32.0,100,30.14,10.0,NNE,5.8,-,N/A,,Mostly Cloudy,30,2011-11-22 11:15:00
5:35 AM,33.8,32.0,93,30.15,7.0,NNE,3.5,-,N/A,,Overcast,20,2011-11-22 11:35:00
5:55 AM,33.8,32.0,93,30.14,7.0,North,5.8,-,N/A,,Overcast,10,2011-11-22 11:55:00
6:15 AM,33.8,32.0,93,30.14,7.0,North,5.8,-,N/A,,Mostly Cloudy,10,2011-11-22 12:15:00
6:35 AM,33.8,33.8,100,30.14,5.0,NE,5.8,-,N/A,,Scattered Clouds,40,2011-11-22 12:35:00
6:55 AM,35.6,33.8,93,30.14,5.0,NE,6.9,-,N/A,,Clear,40,2011-11-22 12:55:00
7:15 AM,35.6,33.8,93,30.15,5.0,NE,4.6,-,N/A,,Mostly Cloudy,50,2011-11-22 13:15:00
7:35 AM,35.6,35.6,100,30.15,5.0,NE,6.9,-,N/A,,Overcast,50,2011-11-22 13:35:00
7:55 AM,35.6,35.6,100,30.15,5.0,NE,6.9,-,N/A,,Scattered Clouds,40,2011-11-22 13:55:00
8:15 AM,35.6,35.6,100,30.14,5.0,NE,6.9,-,N/A,,Clear,50,2011-11-22 14:15:00
8:35 AM,35.6,35.6,100,30.14,7.0,NE,8.1,-,N/A,,Clear,50,2011-11-22 14:35:00
8:55 AM,37.4,33.8,87,30.12,10.0,NE,9.2,16.1,N/A,,Clear,50,2011-11-22 14:55:00
9:15 AM,37.4,33.8,87,30.10,10.0,ENE,9.2,-,N/A,,Scattered Clouds,60,2011-11-22 15:15:00
9:35 AM,37.4,33.8,87,30.09,10.0,ENE,11.5,-,N/A,,Mostly Cloudy,70,2011-11-22 15:35:00
9:55 AM,37.4,33.8,87,30.08,10.0,East,10.4,-,N/A,,Scattered Clouds,80,2011-11-22 15:55:00
10:15 AM,37.4,33.8,87,30.07,10.0,East,12.7,-,N/A,,Scattered Clouds,80,2011-11-22 16:15:00
10:35 AM,37.4,33.8,87,30.06,10.0,ENE,10.4,18.4,N/A,,Scattered Clouds,70,2011-11-22 16:35:00
10:55 AM,37.4,33.8,87,30.05,10.0,ENE,11.5,-,N/A,,Mostly Cloudy,60,2011-11-22 16:55:00
11:15 AM,39.2,33.8,81,30.04,10.0,ENE,11.5,-,N/A,,Overcast,70,2011-11-22 17:15:00
11:35 AM,39.2,33.8,81,30.02,10.0,ENE,11.5,-,N/A,,Overcast,70,2011-11-22 17:35:00
11:55 AM,39.2,32.0,75,30.02,10.0,ENE,11.5,-,N/A,,Overcast,60,2011-11-22 17:55:00
12:15 PM,39.2,32.0,75,30.02,10.0,NE,8.1,-,N/A,,Overcast,50,2011-11-22 18:15:00
12:35 PM,39.2,32.0,75,30.00,10.0,NE,8.1,-,N/A,,Overcast,40,2011-11-22 18:35:00
1:15 PM,39.2,32.0,75,29.98,10.0,NNE,9.2,-,N/A,,Overcast,30,2011-11-22 19:15:00
1:35 PM,39.2,32.0,75,29.98,10.0,NE,10.4,-,N/A,,Overcast,40,2011-11-22 19:35:00
1:55 PM,39.2,32.0,75,29.97,10.0,NNE,11.5,-,N/A,,Overcast,20,2011-11-22 19:55:00
2:15 PM,39.2,32.0,75,29.97,10.0,NNE,10.4,-,N/A,,Overcast,30,2011-11-22 20:15:00
2:35 PM,39.2,32.0,75,29.96,10.0,NNE,9.2,-,N/A,,Overcast,30,2011-11-22 20:35:00
2:55 PM,39.2,30.2,70,29.96,10.0,NNE,12.7,17.3,N/A,,Overcast,30,2011-11-22 20:55:00
3:15 PM,37.4,32.0,81,29.97,10.0,NNE,9.2,-,N/A,,Overcast,30,2011-11-22 21:15:00
3:35 PM,37.4,32.0,81,29.96,10.0,NNE,9.2,-,N/A,,Overcast,20,2011-11-22 21:35:00
4:15 PM,37.4,32.0,81,29.98,10.0,NNE,5.8,-,N/A,,Overcast,20,2011-11-22 22:15:00
4:35 PM,37.4,32.0,81,29.98,10.0,North,6.9,-,N/A,,Overcast,360,2011-11-22 22:35:00
4:55 PM,37.4,32.0,81,29.98,10.0,NNE,6.9,-,N/A,,Overcast,20,2011-11-22 22:55:00
5:15 PM,37.4,32.0,81,29.98,10.0,North,6.9,-,N/A,,Overcast,10,2011-11-22 23:15:00
5:35 PM,37.4,32.0,81,29.99,10.0,North,6.9,-,N/A,,Overcast,10,2011-11-22 23:35:00
5:55 PM,37.4,32.0,81,30.01,10.0,North,6.9,-,N/A,,Overcast,360,2011-11-22 23:55:00
6:15 PM,37.4,32.0,81,30.01,10.0,North,6.9,-,N/A,,Overcast,10,2011-11-23 00:15:00
6:35 PM,37.4,32.0,81,30.00,10.0,North,6.9,-,N/A,,Overcast,360,2011-11-23 00:35:00
7:15 PM,35.6,32.0,87,30.00,10.0,North,9.2,-,N/A,,Overcast,360,2011-11-23 01:15:00
7:35 PM,35.6,32.0,87,30.00,10.0,North,4.6,-,N/A,,Overcast,360,2011-11-23 01:35:00
7:55 PM,35.6,32.0,87,30.01,10.0,North,6.9,-,N/A,,Overcast,360,2011-11-23 01:55:00
8:15 PM,35.6,32.0,87,30.01,10.0,North,6.9,-,N/A,,Overcast,350,2011-11-23 02:15:00
8:35 PM,35.6,32.0,87,30.02,10.0,NNW,4.6,-,N/A,,Overcast,340,2011-11-23 02:35:00
8:55 PM,35.6,32.0,87,30.02,10.0,NNW,5.8,-,N/A,,Overcast,340,2011-11-23 02:55:00
9:15 PM,35.6,32.0,87,30.03,10.0,NW,3.5,-,N/A,,Overcast,320,2011-11-23 03:15:00
9:35 PM,35.6,32.0,87,30.03,10.0,NW,5.8,-,N/A,,Overcast,320,2011-11-23 03:35:00
9:55 PM,33.8,32.0,93,30.03,10.0,WNW,4.6,-,N/A,,Overcast,300,2011-11-23 03:55:00
10:15 PM,33.8,32.0,93,30.04,5.0,NW,5.8,-,N/A,,Scattered Clouds,320,2011-11-23 04:15:00
10:35 PM,32.0,32.0,100,30.04,5.0,NW,3.5,-,N/A,,Clear,320,2011-11-23 04:35:00
10:55 PM,32.0,32.0,100,30.04,4.0,NNW,4.6,-,N/A,,Clear,330,2011-11-23 04:55:00
11:15 PM,32.0,32.0,100,30.05,4.0,NNW,5.8,-,N/A,,Clear,330,2011-11-23 05:15:00
11:35 PM,32.0,32.0,100,30.05,5.0,NNW,4.6,-,N/A,,Clear,330,2011-11-23 05:35:00
11:55 PM,32.0,32.0,100,30.06,5.0,NNW,5.8,-,N/A,,Clear,330,2011-11-23 05:55:00